OPS 4682 DEB, 38365

Orbit data source: Space-Track

OPS 4682 DEB, 38365 is space debris in LEO originally from a launch on Sat, 03 Apr 1965 UTC launched from the Air Force Western Test Range (AFWTR). Debris objects in space refer to the collection of defunct objects orbiting the Earth. Examples of debris include non-operational satellites, rocket bodies, and fragments generated from explosions, collisions, or faulty payload assembly.

Loading next visibility...
Identifier
38365, 1965-027BS
Orbit
LEO
Country
Flag of USUS
Related business
Manufacturer
Unknown
Mission
Spacecraft
Bus & Motor
Unknown
Mass
Unknown
Launch date (UTC)
1965-04-03 (61 years ago)
Launch vehicle
Unknown
Launch site
Air Force Western Test Range (AFWTR)
Object type
Payload
Rocket body
Debris
Shape & HBR
Unknown shape, 0.1 m
Radar Cross Section
Small (<0.1 m²)

Expand to show TLE details & history
Last TLE update: 1 day ago

TLE from 1 day ago
0 OPS 4682 DEB
1 38365U 65027BS  26035.17702453  .00001123  00000-0  37531-2 0  9998
2 38365  90.2499 353.0961 0025051 341.4759  18.5449 12.99069857615046
Epoch: 2026-02-04T04:14Z
TLE epoch observation values (Epoch: 2026-02-04T04:14:54.919Z)
Latitude
0.00006°
Longitude
155.01992°
Altitude
1,250.462 km
Speed
7.238 km/s
True Right ascension
23h 32m 23s
True Declination
0° 00' 00"
Sunlit
Object was in daylight at epoch
Visualization orbit readout
Latitude
Unknown
Longitude
Unknown
Altitude
Unknown
Speed
Unknown
Apparent Right ascension
Unknown
Apparent Declination
Unknown
Sunlit
N/A
Visualization observer readout
Local Sidereal Time
08:46:50
Azimuth
Unknown
Elevation
Unknown
Doppler factor
Unknown
Orbital elements
Apogee altitude
1,282.003 km
Perigee altitude
1,243.72 km
Semi-major axis
7,640.999 km
Eccentricity
0.00251
Inclination
90.2499°
RAAN
353.0961°
Arg. of periapsis
341.4759°
True anomaly
18.63647°
Mean anomaly
18.5449°
Eccentric anomaly
18.59066°
Mean motion
3.24951 °/min
Orbital period
110.79 mins
BSTAR
0.0037531
Loading maneuver chart data...
Computing Atmospheric mass density...
Loading historical data...
Loading historical data...
Loading historical data...
Loading historical data...
Loading historical data...
Loading historical data...
Loading historical data...

Documentation

Showing up to 5 results
|